Weather History for Vernon, TX

Change the Weather History Date:

Sunday, March 23, 2014

  Actual Average (KLTS) Record (KLTS)
Temperature  
Mean Temperature 43 °F -  
Max Temperature 54 °F 65 °F 85 °F (2009)
Min Temperature 34 °F 41 °F 28 °F (2006)
Degree Days  
Heating Degree Days 22    
Moisture  
Dew Point 16 °F    
Average Humidity 34    
Maximum Humidity 43    
Minimum Humidity 25    
Precipitation  
Precipitation 0.00 in - - ()
Sea Level Pressure  
Sea Level Pressure 30.35 in    
Wind  
Wind Speed 13 mph (NNE)    
Max Wind Speed 24 mph    
Max Gust Speed 32 mph    
Visibility 10 miles    
Events      
Averages and records for this station are not official NWS values.
T = Trace of Precipitation, MM = Missing Value Source: NWS Daily Summary

Daily Weather History Graph

Daily Weather History Graph

Search for Another Location

Airport:

Trip Planner

Search our weather history database for the weather conditions in past years. The results will help you decide how hot, cold, wet, or windy it might be!

Date:

Astronomy

Mar. 23, 2014 Rise Set
Actual Time 7:36 AM CDT 7:51 PM CDT
Civil Twilight 7:11 AM CDT 8:16 PM CDT
Nautical Twilight 6:42 AM CDT 8:45 PM CDT
Astronomical Twilight 6:12 AM CDT 9:15 PM CDT
Moon 1:57 AM CDT (3/23) 12:32 PM CDT (3/23)
Length of Visible Light 13h 04m
Length of Day
12h 14m
Waning Gibbous, 54% of the Moon is Illuminated
Mar 23
Waning Gibbous
Mar 23
Last Quarter
Mar 30
New
Apr 7
First Quarter
Apr 15
Full

Hourly Weather History & Observations

Time (CDT) Temp. Windchill Dew Point Humidity Pressure Visibility Wind Dir Wind Speed Gust Speed Precip Events Conditions
12:15 AM 52.3 °F - 25.0 °F 35% 30.23 in 10.0 mi NNE 10.4 mph - N/A   Overcast
12:35 AM 52.2 °F - 24.8 °F 35% 30.23 in 10.0 mi NNE 12.7 mph - N/A   Overcast
12:55 AM 52.0 °F - 24.8 °F 35% 30.23 in 10.0 mi NNE 12.7 mph - N/A   Overcast
1:15 AM 51.6 °F - 24.8 °F 35% 30.24 in 10.0 mi NNE 17.3 mph 21.9 mph N/A   Overcast
1:35 AM 50.7 °F - 23.5 °F 35% 30.25 in 10.0 mi NNE 18.4 mph 26.5 mph N/A   Scattered Clouds
1:55 AM 49.5 °F - 22.1 °F 34% 30.26 in 10.0 mi NNE 16.1 mph 27.6 mph N/A   Clear
2:15 AM 47.8 °F - 19.9 °F 33% 30.27 in 10.0 mi NNE 20.7 mph 27.6 mph N/A   Clear
2:35 AM 46.6 °F - 18.1 °F 32% 30.29 in 10.0 mi NNE 21.9 mph 29.9 mph N/A   Clear
2:55 AM 43.2 °F 33.8 °F 14.2 °F 31% 30.31 in 10.0 mi NNE 24.2 mph 32.2 mph N/A   Clear
3:15 AM 40.8 °F 31.7 °F 12.2 °F 31% 30.32 in 10.0 mi NNE 19.6 mph 28.8 mph N/A   Scattered Clouds
3:35 AM 40.1 °F 31.3 °F 11.7 °F 31% 30.34 in 10.0 mi NNE 17.3 mph 24.2 mph N/A   Scattered Clouds
3:55 AM 39.6 °F 31.0 °F 11.1 °F 31% 30.34 in 10.0 mi NNE 16.1 mph 28.8 mph N/A   Mostly Cloudy
4:15 AM 38.7 °F 29.5 °F 10.9 °F 32% 30.35 in 10.0 mi North 17.3 mph 25.3 mph N/A   Scattered Clouds
4:35 AM 37.9 °F 27.6 °F 10.2 °F 32% 30.36 in 10.0 mi North 20.7 mph 25.3 mph N/A   Scattered Clouds
4:55 AM 37.4 °F 26.9 °F 9.9 °F 32% 30.36 in 10.0 mi NNE 20.7 mph 26.5 mph N/A   Scattered Clouds
5:15 AM 36.5 °F 27.0 °F 10.2 °F 34% 30.37 in 10.0 mi NNE 16.1 mph 26.5 mph N/A   Mostly Cloudy
5:35 AM 35.8 °F 26.1 °F 10.4 °F 35% 30.39 in 10.0 mi North 16.1 mph 20.7 mph N/A   Mostly Cloudy
5:55 AM 35.2 °F 24.7 °F 10.9 °F 37% 30.39 in 10.0 mi NNE 18.4 mph 21.9 mph N/A   Mostly Cloudy
6:15 AM 35.1 °F 23.5 °F 11.5 °F 38% 30.39 in 10.0 mi NNE 21.9 mph 27.6 mph N/A   Mostly Cloudy
6:35 AM 34.7 °F 25.1 °F 11.8 °F 39% 30.39 in 10.0 mi NNE 15.0 mph - N/A   Mostly Cloudy
6:55 AM 34.3 °F 23.9 °F 12.2 °F 40% 30.40 in 10.0 mi NNE 17.3 mph 21.9 mph N/A   Scattered Clouds
7:15 AM 34.2 °F 24.0 °F 12.2 °F 40% 30.40 in 10.0 mi NNE 16.1 mph 21.9 mph N/A   Scattered Clouds
7:35 AM 34.0 °F 25.0 °F 12.6 °F 41% 30.42 in 10.0 mi North 12.7 mph - N/A   Clear
7:55 AM 34.2 °F 25.2 °F 13.1 °F 42% 30.43 in 10.0 mi North 12.7 mph - N/A   Clear
8:15 AM 34.7 °F 24.7 °F 13.5 °F 42% 30.45 in 10.0 mi North 16.1 mph - N/A   Clear
8:35 AM 35.4 °F 25.6 °F 14.0 °F 41% 30.47 in 10.0 mi North 16.1 mph 23.0 mph N/A   Clear
8:55 AM 36.0 °F 27.1 °F 14.2 °F 41% 30.47 in 10.0 mi NNE 13.8 mph 21.9 mph N/A   Clear
9:15 AM 36.3 °F 26.8 °F 14.0 °F 40% 30.48 in 10.0 mi NNE 16.1 mph 23.0 mph N/A   Clear
9:35 AM 36.9 °F 28.2 °F 13.8 °F 39% 30.49 in 10.0 mi North 13.8 mph 21.9 mph N/A   Clear
9:55 AM 37.4 °F 28.5 °F 14.4 °F 39% 30.49 in 10.0 mi North 15.0 mph 24.2 mph N/A   Clear
10:15 AM 38.5 °F 29.9 °F 15.1 °F 39% 30.49 in 10.0 mi North 15.0 mph - N/A   Clear
10:35 AM 38.8 °F 30.0 °F 15.4 °F 39% 30.50 in 10.0 mi North 16.1 mph 23.0 mph N/A   Clear
10:55 AM 38.7 °F 30.5 °F 16.2 °F 40% 30.50 in 10.0 mi North 13.8 mph 25.3 mph N/A   Clear
11:15 AM 39.2 °F 32.0 °F 16.7 °F 40% 30.50 in 10.0 mi North 11.5 mph 19.6 mph N/A   Clear
11:35 AM 40.5 °F 31.5 °F 17.2 °F 39% 30.48 in 10.0 mi North 18.4 mph - N/A   Clear
11:55 AM 41.5 °F 34.2 °F 17.4 °F 38% 30.48 in 10.0 mi NNE 13.8 mph 21.9 mph N/A   Clear
12:15 PM 42.8 °F 37.0 °F 17.6 °F 36% 30.46 in 10.0 mi NNE 10.4 mph 19.6 mph N/A   Clear
12:35 PM 43.9 °F 37.2 °F 17.1 °F 34% 30.45 in 10.0 mi NNE 13.8 mph 20.7 mph N/A   Clear
12:55 PM 44.8 °F 38.3 °F 16.9 °F 33% 30.44 in 10.0 mi NNE 13.8 mph 23.0 mph N/A   Clear
1:15 PM 45.7 °F 40.2 °F 16.5 °F 31% 30.43 in 10.0 mi NNE 11.5 mph 19.6 mph N/A   Clear
1:35 PM 46.6 °F - 16.5 °F 30% 30.41 in 10.0 mi NNE 12.7 mph 20.7 mph N/A   Clear
1:55 PM 47.3 °F - 16.7 °F 30% 30.40 in 10.0 mi North 16.1 mph 21.9 mph N/A   Clear
2:15 PM 48.0 °F - 16.2 °F 28% 30.39 in 10.0 mi NE 9.2 mph 18.4 mph N/A   Clear
2:35 PM 48.6 °F - 16.0 °F 27% 30.38 in 10.0 mi NNE 10.4 mph 17.3 mph N/A   Clear
2:55 PM 48.9 °F - 16.7 °F 28% 30.36 in 10.0 mi North 12.7 mph - N/A   Clear
3:15 PM 50.0 °F - 17.1 °F 27% 30.34 in 10.0 mi NE 9.2 mph - N/A   Clear
3:35 PM 50.5 °F - 16.9 °F 26% 30.34 in 10.0 mi NE 11.5 mph 17.3 mph N/A   Clear
3:55 PM 50.9 °F - 16.7 °F 26% 30.33 in 10.0 mi North 9.2 mph - N/A   Clear
4:15 PM 51.4 °F - 16.9 °F 25% 30.32 in 10.0 mi North 9.2 mph - N/A   Clear
4:35 PM 51.6 °F - 17.6 °F 26% 30.31 in 10.0 mi NNE 10.4 mph - N/A   Clear
4:55 PM 51.8 °F - 17.8 °F 26% 30.30 in 10.0 mi NNE 6.9 mph - N/A   Clear
5:15 PM 52.0 °F - 18.3 °F 27% 30.29 in 10.0 mi NNE 6.9 mph - N/A   Clear
5:35 PM 52.0 °F - 18.5 °F 27% 30.28 in 10.0 mi NNE 4.6 mph - N/A   Clear
5:55 PM 52.5 °F - 18.9 °F 27% 30.27 in 10.0 mi ENE 5.8 mph - N/A   Clear
6:15 PM 52.5 °F - 18.7 °F 26% 30.27 in 10.0 mi NE 5.8 mph - N/A   Clear
6:35 PM 52.2 °F - 18.5 °F 27% 30.27 in 10.0 mi ENE 6.9 mph - N/A   Clear
6:55 PM 52.0 °F - 18.3 °F 27% 30.27 in 10.0 mi East 4.6 mph - N/A   Clear
7:15 PM 51.8 °F - 18.1 °F 27% 30.27 in 10.0 mi East 4.6 mph - N/A   Clear
7:35 PM 50.7 °F - 18.1 °F 28% 30.27 in 10.0 mi ENE 4.6 mph - N/A   Clear
7:55 PM 49.1 °F - 18.5 °F 30% 30.26 in 10.0 mi East 4.6 mph - N/A   Clear
8:15 PM 47.5 °F - 17.6 °F 30% 30.27 in 10.0 mi East 4.6 mph - N/A   Clear
8:35 PM 46.2 °F 44.1 °F 17.4 °F 32% 30.27 in 10.0 mi East 4.6 mph - N/A   Clear
8:55 PM 45.0 °F 43.5 °F 17.1 °F 33% 30.27 in 10.0 mi East 3.5 mph - N/A   Clear
9:15 PM 44.4 °F 42.0 °F 17.4 °F 34% 30.28 in 10.0 mi East 4.6 mph - N/A   Clear
9:35 PM 44.2 °F 41.8 °F 17.4 °F 34% 30.28 in 10.0 mi East 4.6 mph - N/A   Clear
9:55 PM 43.5 °F 40.9 °F 17.6 °F 35% 30.30 in 10.0 mi East 4.6 mph - N/A   Clear
10:15 PM 42.8 °F 41.1 °F 18.0 °F 37% 30.29 in 10.0 mi East 3.5 mph - N/A   Clear
10:35 PM 42.3 °F 39.4 °F 18.0 °F 38% 30.29 in 10.0 mi East 4.6 mph - N/A   Clear
10:55 PM 40.8 °F - 17.8 °F 40% 30.29 in 10.0 mi Calm Calm - N/A   Clear
11:15 PM 39.0 °F - 18.0 °F 43% 30.28 in 10.0 mi Calm Calm - N/A   Clear
11:35 PM 40.5 °F 38.4 °F 18.1 °F 41% 30.27 in 10.0 mi East 3.5 mph - N/A   Clear
11:55 PM 40.3 °F 37.1 °F 18.5 °F 42% 30.26 in 10.0 mi ESE 4.6 mph - N/A   Clear